• In Hungary
  • List of Countries
  • For 7 days
  • Water Temperature
  • Satellite Maps
  • Weather Map
  • News
  • Weather Widgets
  • user-avatar
    Login

    Hourly Weather Priego de Cordoba

    Today, 24 September, Monday

    Time Temperature Precipitation Wind Pressure Humidity
    00:00 +25°C° 0 mm 1 mps 710 mmHg 39%
    01:00 +25°C° 0 mm 1 mps 710 mmHg 40%
    02:00 +25°C° 0 mm 1 mps 710 mmHg 41%
    03:00 +24°C° 0 mm 1 mps 709 mmHg 41%
    04:00 +24°C° 0 mm 1 mps 709 mmHg 42%
    05:00 +24°C° 0 mm 1 mps 709 mmHg 43%
    06:00 +21°C° 0 mm 0 mps 709 mmHg 47%
    07:00 +25°C° 0 mm 1 mps 710 mmHg 42%
    08:00 +27°C° 0 mm 1 mps 710 mmHg 37%
    09:00 +29°C° 0 mm 1 mps 710 mmHg 31%
    10:00 +30°C° 0 mm 1 mps 711 mmHg 28%
    11:00 +32°C° 0 mm 1 mps 711 mmHg 25%
    12:00 +33°C° 0 mm 1 mps 711 mmHg 24%
    13:00 +34°C° 0 mm 2 mps 711 mmHg 23%
    14:00 +34°C° 0 mm 2 mps 710 mmHg 22%
    15:00 +35°C° 0 mm 2 mps 710 mmHg 22%
    16:00 +34°C° 0 mm 2 mps 710 mmHg 24%
    17:00 +32°C° 0 mm 2 mps 709 mmHg 27%
    18:00 +30°C° 0 mm 2 mps 709 mmHg 29%
    19:00 +29°C° 0 mm 2 mps 709 mmHg 32%
    20:00 +28°C° 0 mm 2 mps 709 mmHg 34%
    21:00 +27°C° 0 mm 2 mps 710 mmHg 37%
    22:00 +26°C° 0 mm 2 mps 710 mmHg 38%
    23:00 +26°C° 0 mm 1 mps 710 mmHg 40%

    Tomorrow, 25 September, Tuesday

    Time Temperature Precipitation Wind Pressure Humidity
    00:00 +25°C° 0 mm 1 mps 710 mmHg 42%
    01:00 +25°C° 0 mm 1 mps 709 mmHg 43%
    02:00 +24°C° 0 mm 1 mps 709 mmHg 44%
    03:00 +24°C° 0 mm 1 mps 709 mmHg 46%
    04:00 +24°C° 0 mm 1 mps 709 mmHg 47%
    05:00 +23°C° 0 mm 1 mps 709 mmHg 48%
    06:00 +23°C° 0 mm 1 mps 709 mmHg 50%
    07:00 +25°C° 0 mm 1 mps 710 mmHg 46%
    08:00 +26°C° 0 mm 2 mps 710 mmHg 42%
    09:00 +28°C° 0 mm 2 mps 711 mmHg 37%
    10:00 +29°C° 0 mm 2 mps 711 mmHg 34%
    11:00 +30°C° 0 mm 2 mps 711 mmHg 32%
    12:00 +32°C° 0 mm 2 mps 711 mmHg 29%
    13:00 +33°C° 0 mm 3 mps 711 mmHg 29%
    14:00 +33°C° 0 mm 3 mps 710 mmHg 29%
    15:00 +33°C° 0 mm 3 mps 710 mmHg 29%
    16:00 +31°C° 0.1 mm 3 mps 710 mmHg 33%
    17:00 +30°C° 0.1 mm 3 mps 710 mmHg 37%
    18:00 +29°C° 0.1 mm 3 mps 710 mmHg 42%
    19:00 +27°C° 0.1 mm 3 mps 710 mmHg 48%
    20:00 +26°C° 0.1 mm 3 mps 710 mmHg 55%
    21:00 +25°C° 0.1 mm 3 mps 711 mmHg 61%
    22:00 +25°C° 0.1 mm 3 mps 711 mmHg 65%
    23:00 +24°C° 0.1 mm 2 mps 711 mmHg 69%

    Day after tomorrow, 26 September, Wednesday

    Time Temperature Precipitation Wind Pressure Humidity
    00:00 +24°C° 0.1 mm 2 mps 711 mmHg 73%
    01:00 +23°C° 0.1 mm 2 mps 711 mmHg 74%
    02:00 +23°C° 0.1 mm 2 mps 710 mmHg 76%
    03:00 +21°C° 0.1 mm 2 mps 710 mmHg 77%
    04:00 +21°C° 0 mm 2 mps 710 mmHg 78%
    05:00 +22°C° 0 mm 1 mps 711 mmHg 79%
    06:00 +22°C° 0 mm 1 mps 711 mmHg 79%
    07:00 +23°C° 0 mm 2 mps 711 mmHg 72%
    08:00 +24°C° 0 mm 2 mps 712 mmHg 65%
    09:00 +26°C° 0 mm 2 mps 712 mmHg 57%
    10:00 +27°C° 0.1 mm 2 mps 712 mmHg 51%
    11:00 +28°C° 0.1 mm 2 mps 712 mmHg 45%
    12:00 +30°C° 0.1 mm 2 mps 712 mmHg 39%
    13:00 +30°C° 0.1 mm 2 mps 712 mmHg 38%
    14:00 +30°C° 0.1 mm 2 mps 712 mmHg 37%
    15:00 +31°C° 0.1 mm 2 mps 711 mmHg 36%
    16:00 +30°C° 0.6 mm 2 mps 711 mmHg 40%
    17:00 +29°C° 0.6 mm 3 mps 711 mmHg 44%
    18:00 +28°C° 0.6 mm 3 mps 711 mmHg 47%
    19:00 +27°C° 0.2 mm 2 mps 712 mmHg 52%
    20:00 +26°C° 0.2 mm 2 mps 712 mmHg 57%
    21:00 +25°C° 0.2 mm 2 mps 713 mmHg 62%
    22:00 +24°C° 0.1 mm 2 mps 712 mmHg 65%
    23:00 +24°C° 0.1 mm 2 mps 712 mmHg 68%

    27 September, Thursday

    Time Temperature Precipitation Wind Pressure Humidity
    00:00 +23°C° 0.1 mm 2 mps 712 mmHg 71%
    01:00 +23°C° 0.1 mm 1 mps 712 mmHg 72%
    02:00 +22°C° 0.1 mm 1 mps 712 mmHg 74%
    03:00 +22°C° 0.1 mm 1 mps 712 mmHg 76%
    04:00 +22°C° 0 mm 1 mps 712 mmHg 77%
    05:00 +21°C° 0 mm 1 mps 712 mmHg 78%
    06:00 +21°C° 0 mm 1 mps 712 mmHg 79%
    07:00 +21°C° 0 mm 2 mps 712 mmHg 73%
    08:00 +23°C° 0 mm 2 mps 713 mmHg 67%
    09:00 +25°C° 0 mm 2 mps 713 mmHg 60%
    10:00 +26°C° 0.1 mm 2 mps 713 mmHg 55%
    11:00 +27°C° 0.1 mm 2 mps 713 mmHg 50%
    12:00 +28°C° 0.1 mm 2 mps 713 mmHg 44%
    13:00 +29°C° 0.6 mm 3 mps 713 mmHg 43%
    14:00 +29°C° 0.6 mm 3 mps 712 mmHg 42%
    15:00 +29°C° 0.6 mm 3 mps 712 mmHg 41%
    16:00 +28°C° 0.5 mm 3 mps 711 mmHg 45%
    17:00 +27°C° 0.5 mm 3 mps 711 mmHg 48%
    18:00 +26°C° 0.5 mm 3 mps 711 mmHg 51%
    19:00 +26°C° 0.3 mm 2 mps 711 mmHg 56%
    20:00 +25°C° 0.3 mm 2 mps 711 mmHg 60%
    21:00 +24°C° 0.3 mm 2 mps 712 mmHg 64%
    22:00 +23°C° 0 mm 2 mps 711 mmHg 67%
    23:00 +23°C° 0 mm 1 mps 711 mmHg 69%

    28 September, Friday

    Time Temperature Precipitation Wind Pressure Humidity
    00:00 +22°C° 0 mm 1 mps 711 mmHg 71%
    01:00 +22°C° 0 mm 1 mps 710 mmHg 73%
    02:00 +22°C° 0 mm 1 mps 710 mmHg 74%
    03:00 +21°C° 0 mm 1 mps 709 mmHg 76%
    04:00 +21°C° 0 mm 1 mps 709 mmHg 76%
    05:00 +21°C° 0 mm 1 mps 709 mmHg 76%
    06:00 +20°C° 0 mm 1 mps 709 mmHg 77%
    07:00 +22°C° 0 mm 1 mps 710 mmHg 70%
    08:00 +23°C° 0 mm 1 mps 710 mmHg 63%
    09:00 +24°C° 0 mm 1 mps 710 mmHg 56%
    10:00 +26°C° 0 mm 1 mps 710 mmHg 51%
    11:00 +27°C° 0 mm 1 mps 710 mmHg 46%
    12:00 +28°C° 0 mm 1 mps 710 mmHg 42%
    13:00 +28°C° 0.1 mm 1 mps 709 mmHg 41%
    14:00 +29°C° 0.1 mm 1 mps 709 mmHg 40%
    15:00 +29°C° 0.1 mm 2 mps 708 mmHg 40%
    16:00 +28°C° 0.2 mm 1 mps 708 mmHg 43%
    17:00 +27°C° 0.2 mm 1 mps 708 mmHg 46%
    18:00 +27°C° 0.2 mm 1 mps 708 mmHg 49%
    19:00 +26°C° 0.1 mm 1 mps 708 mmHg 52%
    20:00 +25°C° 0.1 mm 1 mps 708 mmHg 56%
    21:00 +24°C° 0.1 mm 1 mps 708 mmHg 59%
    22:00 +23°C° 0.1 mm 1 mps 708 mmHg 62%
    23:00 +23°C° 0.1 mm 1 mps 708 mmHg 64%

    29 September, Saturday

    Time Temperature Precipitation Wind Pressure Humidity
    00:00 +22°C° 0.1 mm 1 mps 708 mmHg 66%
    01:00 +22°C° 0 mm 1 mps 707 mmHg 67%
    02:00 +22°C° 0 mm 1 mps 707 mmHg 69%
    03:00 +21°C° 0 mm 1 mps 707 mmHg 70%
    04:00 +21°C° 0.2 mm 1 mps 707 mmHg 70%
    05:00 +21°C° 0.2 mm 1 mps 707 mmHg 71%
    06:00 +21°C° 0.2 mm 1 mps 707 mmHg 71%
    07:00 +22°C° 0.3 mm 1 mps 707 mmHg 64%
    08:00 +24°C° 0.3 mm 1 mps 707 mmHg 57%
    09:00 +25°C° 0.3 mm 1 mps 708 mmHg 50%
    10:00 +26°C° 0.2 mm 2 mps 708 mmHg 46%
    11:00 +28°C° 0.2 mm 2 mps 708 mmHg 43%
    12:00 +29°C° 0.2 mm 2 mps 708 mmHg 39%
    13:00 +29°C° 0.2 mm 2 mps 708 mmHg 39%
    14:00 +29°C° 0.2 mm 2 mps 707 mmHg 38%
    15:00 +29°C° 0.2 mm 2 mps 707 mmHg 38%
    16:00 +28°C° 0.2 mm 2 mps 707 mmHg 41%
    17:00 +28°C° 0.2 mm 2 mps 707 mmHg 45%
    18:00 +27°C° 0.2 mm 1 mps 707 mmHg 48%
    19:00 +26°C° 0.6 mm 1 mps 707 mmHg 52%
    20:00 +25°C° 0.6 mm 1 mps 708 mmHg 55%
    21:00 +24°C° 0.6 mm 1 mps 708 mmHg 59%
    22:00 +24°C° 0.1 mm 1 mps 708 mmHg 61%
    23:00 +23°C° 0.1 mm 1 mps 708 mmHg 63%
    Show more